Mexico City Airport, Mexico

6:41 AM CST on February 08, 2016 (GMT -0600)
Lic Benito Juarez International

Weather History for MMMX - November, 2012

Change the Weather History Date:

Friday, November 23, 2012

  Actual Average Record
Temperature  
Mean Temperature 60 °F -  
Max Temperature 71 °F 68 °F 78 °F (2010)
Min Temperature 48 °F 41 °F 28 °F (2002)
Degree Days  
Heating Degree Days 6    
Growing Degree Days 10 (Base 50)    
Moisture  
Dew Point 42 °F    
Average Humidity 59    
Maximum Humidity 87    
Minimum Humidity 25    
Precipitation  
Precipitation 0.00 in - - ()
Sea Level Pressure  
Sea Level Pressure 30.29 in    
Wind  
Wind Speed 6 mph ()    
Max Wind Speed 23 mph    
Max Gust Speed 30 mph    
Visibility 6.4 miles    
Events      
Averages and records for this station are not official NWS values.
T = Trace of Precipitation, MM = Missing Value Source: Averaged Metar Reports

Daily Weather History Graph

Daily Weather History Graph

Search for Another Location

Airport or City:

Trip Planner

Search our weather history database for the weather conditions in past years. The results will help you decide how hot, cold, wet, or windy it might be!

Date:

Astronomy

Nov. 23, 2012 Rise Set
Actual Time 6:49 AM CST 5:56 PM CST
Civil Twilight 6:26 AM CST 6:19 PM CST
Nautical Twilight 5:59 AM CST 6:46 PM CST
Astronomical Twilight 5:32 AM CST 7:13 PM CST
Moon 2:44 PM CST (11/23) 2:40 AM CST (11/23)
Length of Visible Light 11h 53m
Length of Day
11h 07m
Waxing Gibbous, 80% of the Moon is Illuminated
Nov 23
Waxing Gibbous
Nov 28
Full
Dec 6
Last Quarter
Dec 13
New
Dec 19
First Quarter

Hourly Weather History & Observations

Time (CST) Temp. Dew Point Humidity Pressure Visibility Wind Dir Wind Speed Gust Speed Precip Events Conditions
12:51 AM 55.4 °F 44.6 °F 67% 30.38 in 8.0 mi East 5.8 mph - N/A   Scattered Clouds
1:58 AM 53.6 °F 42.8 °F 67% 30.37 in 7.0 mi Calm Calm - N/A   Clear
2:08 AM 50.0 °F 42.8 °F 76% 30.37 in 7.0 mi Calm Calm - N/A   Clear
2:53 AM 48.2 °F 42.8 °F 82% 29.99 in 5.0 mi NE 4.6 mph - N/A   Clear
3:29 AM 48.2 °F 44.6 °F 87% 30.36 in 4.0 mi Calm Calm - N/A   Clear
3:48 AM 48.2 °F 44.6 °F 87% 30.36 in 4.0 mi ENE 4.6 mph - N/A   Partly Cloudy
4:48 AM 48.2 °F 44.6 °F 87% 30.37 in 5.0 mi ENE 5.8 mph - N/A   Mostly Cloudy
5:43 AM 48.2 °F 44.6 °F 87% 29.96 in 5.0 mi ENE 5.8 mph - N/A   Overcast
6:26 AM 48.2 °F 44.6 °F 87% 30.38 in 5.0 mi NE 4.6 mph - N/A   Mostly Cloudy
6:51 AM 50.0 °F 46.4 °F 87% 30.38 in 4.0 mi East 3.5 mph - N/A   Overcast
7:22 AM 51.8 °F 46.4 °F 82% 30.39 in 4.0 mi NE 4.6 mph - N/A   Overcast
7:44 AM 51.8 °F 46.4 °F 82% 30.40 in 4.0 mi ENE 5.8 mph - N/A   Overcast
8:21 AM 51.8 °F 46.4 °F 82% 30.41 in 4.0 mi ENE 6.9 mph 18.4 mph N/A   Overcast
8:45 AM 53.6 °F 46.4 °F 77% 30.01 in 4.0 mi East 6.9 mph - N/A   Overcast
9:21 AM 55.4 °F 46.4 °F 72% 30.43 in 4.0 mi ENE 6.9 mph - N/A   Overcast
9:44 AM 57.2 °F 48.2 °F 72% 30.43 in 4.0 mi East 6.9 mph - N/A   Mostly Cloudy
10:21 AM 59.0 °F 46.4 °F 63% 30.42 in 2.0 mi North 3.5 mph - N/A   Haze
10:44 AM 60.8 °F 48.2 °F 63% 30.42 in 2.0 mi Calm Calm - N/A   Haze
10:47 AM 60.8 °F 46.4 °F 59% 30.42 in 2.0 mi NW 4.6 mph - N/A   Haze
11:37 AM 64.4 °F 44.6 °F 49% 30.38 in 2.5 mi NNW 6.9 mph - N/A   Haze
11:49 AM 64.4 °F 44.6 °F 49% 29.93 in 2.5 mi NNW 5.8 mph - N/A   Haze
12:16 PM 68.0 °F 44.6 °F 43% 30.36 in 2.5 mi NE 5.8 mph - N/A   Haze
12:36 PM 68.0 °F 41.0 °F 37% 30.35 in 3.0 mi NE 9.2 mph - N/A   Haze
12:45 PM 69.8 °F 37.4 °F 31% 30.34 in 4.0 mi NE 6.9 mph - N/A   Clear
1:51 PM 69.8 °F 32.0 °F 25% 30.31 in 7.0 mi NNE 11.5 mph - N/A   Partly Cloudy
2:45 PM 71.6 °F 35.6 °F 27% 29.86 in 7.0 mi North 6.9 mph - N/A   Scattered Clouds
3:43 PM 71.6 °F 39.2 °F 31% 30.27 in 7.0 mi North 13.8 mph - N/A   Scattered Clouds
4:41 PM 68.0 °F 33.8 °F 28% 30.29 in 8.0 mi North 16.1 mph 27.6 mph N/A   Scattered Clouds
4:49 PM 68.0 °F 32.0 °F 26% 30.29 in 8.0 mi North 15.0 mph 27.6 mph N/A   Scattered Clouds
5:41 PM 64.4 °F 35.6 °F 34% 30.31 in 9.0 mi NE 23.0 mph - N/A   Mostly Cloudy
5:47 PM 64.4 °F 35.6 °F 34% 29.92 in 9.0 mi NE 16.1 mph 27.6 mph N/A   Mostly Cloudy
6:32 PM 60.8 °F 37.4 °F 42% 30.34 in 12.0 mi NNE 18.4 mph 29.9 mph N/A   Scattered Clouds
6:55 PM 60.8 °F 42.8 °F 52% 30.35 in 12.0 mi North 8.1 mph 24.2 mph N/A   Scattered Clouds
7:39 PM 57.2 °F 37.4 °F 48% 30.38 in 12.0 mi North 11.5 mph 23.0 mph N/A   Scattered Clouds
7:45 PM 57.2 °F 37.4 °F 48% 30.38 in 12.0 mi North 11.5 mph 23.0 mph N/A   Scattered Clouds
8:48 PM 55.4 °F 39.2 °F 54% 30.04 in 12.0 mi North 4.6 mph - N/A   Mostly Cloudy
9:43 PM 55.4 °F 39.2 °F 54% 30.41 in 12.0 mi NNW 3.5 mph - N/A   Clear
10:46 PM 55.4 °F 41.0 °F 58% 30.41 in 12.0 mi WNW 8.1 mph - N/A   Clear
11:52 PM 53.6 °F 41.0 °F 62% 29.99 in 12.0 mi WNW 5.8 mph - N/A   Clear